MAYA-5

Last updated on Wed Dec 06 2023 00:02:08 GMT+0000 (Coordinated Universal Time)

1 57419U 98067VW 23339.57935649 .06108209 12079-4 13815-2 0 9993 2 57419 51.6104 181.5357 0007935 256.0484 103.9656 16.29265221 21850

Satellite not in orbit